DW2070 Weather Reports


Display with metric or nautical units.
time (UTC)temp
F
wind
direction
speed
MPH
gust
MPH
rain 1hr
in
rain 24hr
in
rain mn
in
humidity
%
barometer
mb
20260901054025 64 0 2.0 2.0 0.00 0.00 0.00 81 1014.5
20260901052004 64 0 0.0 2.0 0.00 0.00 0.00 81 1014.5
20260901051004 64 0 0.0 1.0 0.00 0.00 0.00 81 1014.5
20260901050004 64 310 1.0 1.0 0.00 0.00 0.00 81 1014.5
20260901045004 65 310 2.0 4.0 0.00 0.00 0.00 81 1014.4
20260901044004 65 311 1.0 4.0 0.00 0.00 0.00 80 1014.5
20260901043004 65 312 1.0 3.0 0.00 0.00 0.00 79 1014.3
20260901042025 65 312 0.0 2.0 0.00 0.00 0.00 79 1014.3
20260901032004 67 320 1.0 5.0 0.00 0.00 0.00 76 1013.6
20260901031004 68 324 2.0 5.0 0.00 0.00 0.00 75 1013.5
20260901030025 68 313 2.0 5.0 0.00 0.00 0.00 74 1013.6
20260901025004 69 307 2.0 4.0 0.00 0.00 0.00 72 1013.6
20260901024004 70 299 2.0 6.0 0.00 0.00 0.00 71 1013.4
20260901023004 70 302 2.0 6.0 0.00 0.00 0.00 70 1013.3
20260901022004 71 275 2.0 6.0 0.00 0.00 0.00 69 1013.1
20260901021004 72 269 2.0 7.0 0.00 0.00 0.00 68 1013.3
20260901020004 72 286 3.0 6.0 0.00 0.00 0.00 67 1013.3
20260901015004 73 242 3.0 8.0 0.00 0.00 0.00 65 1013.3
20260901014004 74 252 3.0 9.0 0.00 0.00 0.00 63 1013.3
20260901013004 75 258 3.0 10.0 0.00 0.00 0.00 62 1013.3
20260901012025 75 271 5.0 11.0 0.00 0.00 0.00 61 1013.2
20260901011004 76 255 5.0 11.0 0.00 0.00 0.00 60 1013.2
20260901010004 77 266 4.0 12.0 0.00 0.00 0.00 58 1013.2
20260901005004 78 276 5.0 10.0 0.00 0.00 0.00 58 1013.2
20260901004004 78 263 5.0 10.0 0.00 0.00 0.00 57 1013.0
20260901003004 79 280 4.0 14.0 0.00 0.00 0.00 56 1013.1
20260901002004 79 253 5.0 11.0 0.00 0.00 0.00 56 1013.2
20260901001004 80 258 5.0 12.0 0.00 0.00 0.00 55 1013.2
20260901000004 79 254 6.0 13.0 0.00 0.00 0.00 55 1013.1
20260831235004 80 250 7.0 13.0 0.00 0.00 0.00 55 1013.2
20260831234004 80 262 6.0 12.0 0.00 0.00 0.00 56 1013.0
20260831233025 81 253 6.0 13.0 0.00 0.00 0.00 57 1013.1
20260831232004 81 256 6.0 14.0 0.00 0.00 0.00 56 1013.0
20260831231004 81 264 6.0 12.0 0.00 0.00 0.00 56 1013.0
20260831230004 81 257 6.0 13.0 0.00 0.00 0.00 56 1013.0
20260831225004 82 260 5.0 12.0 0.00 0.00 0.00 56 1013.1
20260831224004 82 255 6.0 12.0 0.00 0.00 0.00 56 1013.2
20260831223004 82 251 5.0 11.0 0.00 0.00 0.00 56 1013.2
20260831222004 82 252 5.0 13.0 0.00 0.00 0.00 57 1013.3
20260831221025 81 266 5.0 12.0 0.00 0.00 0.00 60 1013.4
20260831220004 81 258 6.0 12.0 0.00 0.00 0.00 60 1013.5
20260831215004 81 252 5.0 13.0 0.00 0.00 0.00 59 1013.7
20260831214004 81 263 6.0 11.0 0.00 0.00 0.00 60 1013.6
20260831213025 81 251 7.0 15.0 0.00 0.00 0.00 60 1013.7
20260831212004 81 251 6.0 12.0 0.00 0.00 0.00 61 1013.7
20260831211004 82 271 5.0 12.0 0.00 0.00 0.00 60 1013.8
20260831210004 81 272 5.0 14.0 0.00 0.00 0.00 60 1013.9
20260831205004 81 266 6.0 11.0 0.00 0.00 0.00 61 1013.9
20260831204004 81 247 5.0 12.0 0.00 0.00 0.00 61 1013.9
20260831203025 81 265 5.0 13.0 0.00 0.00 0.00 61 1014.0
20260831202004 81 261 5.0 13.0 0.00 0.00 0.00 62 1014.1
20260831201004 81 278 5.0 11.0 0.00 0.00 0.00 62 1014.3
20260831200025 80 248 6.0 12.0 0.00 0.00 0.00 64 1014.3
20260831195004 80 252 5.0 14.0 0.00 0.00 0.00 63 1014.5
20260831194025 81 302 4.0 9.0 0.00 0.00 0.00 62 1014.4
20260831193004 80 256 4.0 11.0 0.00 0.00 0.00 63 1014.5
20260831192004 80 250 5.0 11.0 0.00 0.00 0.00 64 1014.5
20260831191004 80 248 5.0 11.0 0.00 0.00 0.00 63 1014.5
20260831185004 80 250 6.0 13.0 0.00 0.00 0.00 62 1014.6
20260831184004 80 247 5.0 13.0 0.00 0.00 0.00 62 1014.6
20260831183004 80 248 4.0 10.0 0.00 0.00 0.00 60 1014.6
20260831182004 80 251 4.0 9.0 0.00 0.00 0.00 61 1014.4
20260831174003 79 263 3.0 8.0 0.00 0.00 0.00 63 1014.2
20260831173025 78 302 2.0 6.0 0.00 0.00 0.00 64 1014.3
20260831172004 77 250 3.0 7.0 0.00 0.00 0.00 65 1014.2
20260831171003 76 261 3.0 8.0 0.00 0.00 0.00 66 1014.2
20260831170004 75 237 3.0 6.0 0.00 0.00 0.00 69 1014.2
20260831165004 75 245 2.0 5.0 0.00 0.00 0.00 69 1014.3
20260831164025 74 254 3.0 5.0 0.00 0.00 0.00 72 1014.2
20260831163004 75 258 2.0 5.0 0.00 0.00 0.00 71 1014.1
20260831162003 74 281 2.0 7.0 0.00 0.00 0.00 73 1014.2
20260831161024 72 317 1.0 6.0 0.00 0.00 0.00 76 1014.1
20260831160004 70 64 1.0 3.0 0.00 0.00 0.00 82 1014.2
20260831155004 67 64 2.0 4.0 0.00 0.00 0.00 90 1014.2
20260831153025 63 0 0.0 0.0 0.00 0.00 0.00 91 1014.2
20260831152003 63 0 0.0 0.0 0.00 0.00 0.00 91 1014.1
20260831151004 62 0 0.0 0.0 0.00 0.00 0.00 91 1014.1
20260831150004 62 0 0.0 0.0 0.00 0.00 0.00 91 1013.9
20260831145004 61 0 0.0 0.0 0.00 0.00 0.00 91 1013.9
20260831144003 61 0 0.0 0.0 0.00 0.00 0.00 90 1013.8
20260831143025 60 0 0.0 0.0 0.00 0.00 0.00 90 1013.6
20260831142003 60 0 0.0 0.0 0.00 0.00 0.00 90 1013.5
20260831140004 60 63 1.0 3.0 0.00 0.00 0.00 90 1013.2
20260831135003 60 61 1.0 3.0 0.00 0.00 0.00 89 1012.9
20260831134003 60 61 1.0 3.0 0.00 0.00 0.00 89 1012.8
20260831133003 60 60 2.0 3.0 0.00 0.00 0.00 89 1012.8
20260831132003 60 59 2.0 4.0 0.00 0.00 0.00 89 1012.9
20260831131004 60 58 1.0 4.0 0.00 0.00 0.00 88 1013.0
20260831130025 60 58 2.0 4.0 0.00 0.00 0.00 88 1012.9
20260831125003 60 34 1.0 4.0 0.00 0.00 0.00 88 1012.8
20260831124003 60 30 1.0 4.0 0.00 0.00 0.00 88 1012.8
20260831123003 60 29 1.0 3.0 0.00 0.00 0.00 88 1012.7
20260831122003 61 27 1.0 3.0 0.00 0.00 0.00 88 1012.7
20260831121024 60 25 1.0 3.0 0.00 0.00 0.00 87 1012.7
20260831120003 61 329 1.0 4.0 0.00 0.00 0.00 87 1012.7
20260831115003 61 254 1.0 3.0 0.00 0.00 0.00 87 1012.8
20260831114003 61 253 0.0 3.0 0.00 0.00 0.00 86 1012.7
20260831113003 61 0 0.0 0.0 0.00 0.00 0.00 85 1012.7
20260831112003 61 0 0.0 0.0 0.00 0.00 0.00 85 1012.8
20260831111003 62 0 0.0 0.0 0.00 0.00 0.00 85 1012.8
20260831110003 62 0 0.0 0.0 0.00 0.00 0.00 85 1012.8
20260831105024 62 0 0.0 0.0 0.00 0.00 0.00 85 1012.9
20260831104003 62 0 0.0 0.0 0.00 0.00 0.00 85 1012.9
20260831103003 62 0 2.0 2.0 0.00 0.00 0.00 85 1012.8
20260831102003 63 0 0.0 0.0 0.00 0.00 0.00 84 1012.9
20260831101003 63 0 0.0 0.0 0.00 0.00 0.00 84 1012.8
20260831100003 63 0 0.0 0.0 0.00 0.00 0.00 84 1012.7
20260831095003 64 0 0.0 0.0 0.00 0.00 0.00 84 1012.8
20260831094024 64 0 0.0 0.0 0.00 0.00 0.00 84 1012.8
20260831092003 64 0 0.0 0.0 0.00 0.00 0.00 84 1012.8
20260831091024 64 0 0.0 0.0 0.00 0.00 0.00 84 1012.6
20260831090003 65 0 0.0 0.0 0.00 0.00 0.00 83 1012.7
20260831082024 65 0 0.0 0.0 0.00 0.00 0.00 82 1012.7
20260831080024 66 0 0.0 0.0 0.00 0.00 0.00 82 1012.6
20260831075003 66 0 0.0 0.0 0.00 0.00 0.00 83 1012.6
20260831074004 66 0 0.0 0.0 0.00 0.00 0.00 83 1012.5
20260831073004 66 251 0.0 2.0 0.00 0.00 0.00 82 1012.6
20260831072004 66 251 1.0 2.0 0.00 0.00 0.00 82 1012.6
20260831071004 66 251 1.0 3.0 0.00 0.00 0.00 82 1012.6
20260831070005 66 251 1.0 3.0 0.00 0.00 0.00 82 1012.6
20260831065004 67 0 0.0 2.0 0.00 0.00 0.00 81 1012.6
20260831064004 67 0 0.0 2.0 0.00 0.00 0.00 81 1012.6
20260831063025 67 0 0.0 2.0 0.00 0.00 0.00 80 1012.5
20260831062004 67 0 0.0 1.0 0.00 0.00 0.00 81 1012.5
20260831061004 67 0 0.0 1.0 0.00 0.00 0.00 80 1012.3
20260831060025 67 0 0.0 3.0 0.00 0.00 0.00 80 1012.3
20260831055025 68 0 0.0 1.0 0.00 0.00 0.00 80 1012.4